| time (UTC) | temp F | wind direction | speed MPH | gust MPH | rain 1hr in | rain 24hr in | rain mn in | humidity % | barometer mb |
| 20260504202304 | 60 | 282 | 13.0 | 16.0 | 0.00 | 0.03 | 0.03 | 52 | 1005.5 |
| 20260504201758 | 60 | 306 | 12.0 | 16.0 | 0.00 | 0.03 | 0.03 | 53 | 1005.4 |
| 20260504201256 | 59 | 286 | 9.0 | 14.0 | 0.00 | 0.03 | 0.03 | 53 | 1005.5 |
| 20260504200754 | 59 | 285 | 8.0 | 14.0 | 0.00 | 0.03 | 0.03 | 54 | 1005.4 |
| 20260504200249 | 60 | 316 | 7.0 | 15.0 | 0.00 | 0.03 | 0.03 | 53 | 1005.3 |
| 20260504195746 | 59 | 245 | 6.0 | 19.0 | 0.00 | 0.03 | 0.03 | 54 | 1005.5 |
| 20260504195241 | 59 | 254 | 10.0 | 19.0 | 0.00 | 0.03 | 0.03 | 52 | 1005.6 |
| 20260504194739 | 59 | 251 | 7.0 | 12.0 | 0.00 | 0.03 | 0.03 | 53 | 1005.7 |
| 20260504194235 | 59 | 231 | 7.0 | 12.0 | 0.00 | 0.03 | 0.03 | 54 | 1005.6 |
| 20260504193731 | 59 | 254 | 10.0 | 18.0 | 0.00 | 0.03 | 0.03 | 53 | 1005.7 |
| 20260504193229 | 59 | 284 | 11.0 | 12.0 | 0.00 | 0.03 | 0.03 | 54 | 1005.5 |
| 20260504192727 | 58 | 246 | 13.0 | 16.0 | 0.00 | 0.03 | 0.03 | 55 | 1005.7 |
| 20260504192225 | 58 | 280 | 9.0 | 22.0 | 0.00 | 0.03 | 0.03 | 56 | 1005.6 |
| 20260504191723 | 57 | 254 | 7.0 | 15.0 | 0.00 | 0.03 | 0.03 | 55 | 1005.5 |
| 20260504191220 | 58 | 316 | 14.0 | 20.0 | 0.00 | 0.03 | 0.03 | 55 | 1005.7 |
| 20260504190715 | 57 | 240 | 14.0 | 20.0 | 0.00 | 0.03 | 0.03 | 56 | 1005.5 |
| 20260504190212 | 57 | 280 | 11.0 | 18.0 | 0.00 | 0.03 | 0.03 | 56 | 1005.4 |
| 20260504185708 | 57 | 264 | 6.0 | 15.0 | 0.00 | 0.03 | 0.03 | 57 | 1005.7 |
| 20260504185205 | 57 | 249 | 4.0 | 20.0 | 0.00 | 0.03 | 0.03 | 58 | 1005.5 |
| 20260504184701 | 57 | 237 | 9.0 | 20.0 | 0.00 | 0.03 | 0.03 | 58 | 1005.7 |
| 20260504184156 | 57 | 305 | 16.0 | 19.0 | 0.00 | 0.03 | 0.03 | 58 | 1005.8 |
| 20260504183653 | 56 | 298 | 18.0 | 22.0 | 0.00 | 0.03 | 0.03 | 58 | 1005.6 |
| 20260504183150 | 56 | 268 | 9.0 | 18.0 | 0.00 | 0.03 | 0.03 | 60 | 1005.7 |
| 20260504182648 | 56 | 280 | 20.0 | 24.0 | 0.00 | 0.03 | 0.03 | 59 | 1005.9 |
| 20260504182145 | 56 | 256 | 9.0 | 18.0 | 0.00 | 0.03 | 0.03 | 60 | 1005.6 |
| 20260504181643 | 55 | 284 | 14.0 | 16.0 | 0.00 | 0.03 | 0.03 | 62 | 1005.6 |
| 20260504181140 | 56 | 273 | 11.0 | 21.0 | 0.00 | 0.03 | 0.03 | 60 | 1005.7 |
| 20260504180640 | 55 | 247 | 9.0 | 17.0 | 0.00 | 0.03 | 0.03 | 64 | 1005.9 |
| 20260504180138 | 55 | 300 | 14.0 | 19.0 | 0.00 | 0.03 | 0.03 | 64 | 1005.9 |
| 20260504175635 | 54 | 312 | 9.0 | 18.0 | 0.00 | 0.03 | 0.03 | 65 | 1005.6 |
| 20260504175131 | 54 | 283 | 11.0 | 16.0 | 0.00 | 0.03 | 0.03 | 66 | 1005.7 |
| 20260504174630 | 54 | 250 | 6.0 | 13.0 | 0.00 | 0.03 | 0.03 | 66 | 1005.7 |
| 20260504174125 | 53 | 254 | 5.0 | 22.0 | 0.00 | 0.03 | 0.03 | 67 | 1005.7 |
| 20260504173623 | 53 | 250 | 3.0 | 13.0 | 0.00 | 0.03 | 0.03 | 68 | 1005.7 |
| 20260504173120 | 53 | 262 | 8.0 | 19.0 | 0.00 | 0.03 | 0.03 | 68 | 1005.9 |
| 20260504172616 | 53 | 252 | 12.0 | 19.0 | 0.00 | 0.03 | 0.03 | 69 | 1005.9 |
| 20260504172113 | 53 | 291 | 13.0 | 26.0 | 0.00 | 0.03 | 0.03 | 70 | 1005.8 |
| 20260504171609 | 51 | 275 | 10.0 | 22.0 | 0.00 | 0.03 | 0.03 | 71 | 1006.0 |
| 20260504171107 | 52 | 238 | 9.0 | 13.0 | 0.00 | 0.03 | 0.03 | 72 | 1006.1 |
| 20260504170602 | 51 | 267 | 6.0 | 11.0 | 0.00 | 0.03 | 0.03 | 76 | 1005.9 |
| 20260504150946 | 51 | 232 | 7.0 | 13.0 | 0.00 | 0.00 | 0.00 | 59 | 1005.2 |
| 20260504150443 | 51 | 262 | 4.0 | 8.0 | 0.00 | 0.00 | 0.00 | 58 | 1005.4 |
| 20260504140910 | 50 | 249 | 2.0 | 5.0 | 0.00 | 0.00 | 0.00 | 55 | 1006.0 |
| 20260504140406 | 50 | 149 | 3.0 | 6.0 | 0.00 | 0.00 | 0.00 | 56 | 1006.2 |
| 20260504130331 | 42 | 226 | 2.0 | 2.0 | 0.00 | 0.00 | 0.00 | 65 | 1007.1 |
| 20260504120254 | 42 | 55 | 0.0 | 2.0 | 0.00 | 0.00 | 0.00 | 64 | 1007.4 |
| 20260504110218 | 31 | 95 | 4.0 | 4.0 | 0.00 | 0.00 | 0.00 | 90 | 1007.3 |
| 20260504100142 | 28 | 94 | 3.0 | 4.0 | 0.00 | 0.00 | 0.00 | 92 | 1007.4 |
| 20260504090104 | 28 | 82 | 2.0 | 4.0 | 0.00 | 0.00 | 0.00 | 91 | 1006.9 |
| 20260504081535 | 28 | 95 | 3.0 | 4.0 | 0.00 | 0.00 | 0.00 | 90 | 1006.9 |
| 20260504081030 | 28 | 98 | 4.0 | 5.0 | 0.00 | 0.00 | 0.00 | 90 | 1006.7 |
| 20260504080527 | 28 | 84 | 1.0 | 5.0 | 0.00 | 0.00 | 0.00 | 90 | 1006.8 |
| 20260504050340 | 30 | 88 | 1.0 | 3.0 | 0.00 | 0.00 | 0.00 | 83 | 1006.6 |
| 20260504045837 | 30 | 102 | 3.0 | 4.0 | 0.00 | 0.00 | 0.00 | 83 | 1006.5 |
| 20260504045332 | 30 | 87 | 4.0 | 4.0 | 0.00 | 0.00 | 0.00 | 83 | 1006.5 |
| 20260504044829 | 31 | 105 | 2.0 | 3.0 | 0.00 | 0.00 | 0.00 | 82 | 1006.4 |
| 20260504044326 | 31 | 102 | 2.0 | 3.0 | 0.00 | 0.00 | 0.00 | 82 | 1006.6 |
| 20260504043824 | 31 | 97 | 2.0 | 3.0 | 0.00 | 0.00 | 0.00 | 81 | 1006.6 |
| 20260504043320 | 31 | 85 | 2.0 | 4.0 | 0.00 | 0.00 | 0.00 | 80 | 1006.7 |
| 20260504042818 | 32 | 91 | 2.0 | 3.0 | 0.00 | 0.00 | 0.00 | 80 | 1006.5 |
| 20260504042314 | 32 | 72 | 2.0 | 3.0 | 0.00 | 0.00 | 0.00 | 78 | 1006.8 |
| 20260504041810 | 33 | 101 | 2.0 | 3.0 | 0.00 | 0.00 | 0.00 | 77 | 1006.7 |
| 20260504041307 | 33 | 89 | 3.0 | 3.0 | 0.00 | 0.00 | 0.00 | 77 | 1006.6 |
| 20260504040803 | 33 | 150 | 0.0 | 3.0 | 0.00 | 0.00 | 0.00 | 76 | 1006.6 |
| 20260504040301 | 33 | 69 | 2.0 | 3.0 | 0.00 | 0.00 | 0.00 | 75 | 1006.7 |
| 20260504035756 | 33 | 71 | 1.0 | 3.0 | 0.00 | 0.01 | 0.01 | 76 | 1006.5 |
| 20260504035254 | 33 | 57 | 2.0 | 3.0 | 0.00 | 0.01 | 0.01 | 75 | 1006.6 |
| 20260504034751 | 33 | 81 | 2.0 | 3.0 | 0.00 | 0.01 | 0.01 | 76 | 1006.5 |
| 20260504034248 | 33 | 79 | 2.0 | 3.0 | 0.00 | 0.01 | 0.01 | 75 | 1006.3 |
| 20260504033746 | 34 | 76 | 2.0 | 4.0 | 0.00 | 0.01 | 0.01 | 75 | 1006.4 |
| 20260504033243 | 35 | 72 | 2.0 | 2.0 | 0.00 | 0.01 | 0.01 | 73 | 1006.2 |
| 20260504032740 | 35 | 82 | 1.0 | 3.0 | 0.00 | 0.01 | 0.01 | 71 | 1006.4 |
| 20260504032237 | 35 | 80 | 1.0 | 2.0 | 0.00 | 0.01 | 0.01 | 70 | 1006.4 |
| 20260504031733 | 36 | 83 | 2.0 | 3.0 | 0.00 | 0.01 | 0.01 | 69 | 1006.5 |
| 20260504031231 | 35 | 93 | 2.0 | 2.0 | 0.00 | 0.01 | 0.01 | 69 | 1006.5 |
| 20260504030726 | 35 | 97 | 1.0 | 2.0 | 0.00 | 0.01 | 0.01 | 70 | 1006.3 |
| 20260504030224 | 35 | 93 | 1.0 | 3.0 | 0.00 | 0.01 | 0.01 | 71 | 1006.4 |
| 20260504025720 | 35 | 100 | 2.0 | 3.0 | 0.00 | 0.01 | 0.01 | 72 | 1006.4 |
| 20260504025217 | 35 | 52 | 0.0 | 2.0 | 0.00 | 0.01 | 0.01 | 71 | 1006.6 |
| 20260504024714 | 36 | 97 | 2.0 | 2.0 | 0.00 | 0.01 | 0.01 | 70 | 1006.5 |
| 20260504024211 | 36 | 82 | 2.0 | 2.0 | 0.00 | 0.01 | 0.01 | 69 | 1006.4 |
| 20260504023708 | 37 | 77 | 2.0 | 3.0 | 0.00 | 0.01 | 0.01 | 67 | 1006.4 |
| 20260504023203 | 37 | 93 | 0.0 | 1.0 | 0.00 | 0.01 | 0.01 | 66 | 1006.5 |
| 20260504022700 | 37 | 81 | 2.0 | 2.0 | 0.00 | 0.01 | 0.01 | 65 | 1006.6 |
| 20260504022156 | 37 | 68 | 2.0 | 2.0 | 0.00 | 0.01 | 0.01 | 64 | 1006.6 |
| 20260504021654 | 37 | 94 | 2.0 | 2.0 | 0.00 | 0.01 | 0.01 | 63 | 1006.5 |
| 20260504021150 | 38 | 112 | 2.0 | 3.0 | 0.00 | 0.01 | 0.01 | 63 | 1006.5 |
| 20260504020648 | 39 | 103 | 1.0 | 3.0 | 0.00 | 0.01 | 0.01 | 63 | 1006.3 |
| 20260504020143 | 39 | 302 | 0.0 | 1.0 | 0.00 | 0.01 | 0.01 | 60 | 1006.6 |
| 20260504015641 | 40 | 73 | 1.0 | 3.0 | 0.00 | 0.01 | 0.01 | 60 | 1006.4 |
| 20260504015137 | 40 | 349 | 0.0 | 2.0 | 0.00 | 0.01 | 0.01 | 58 | 1006.5 |
| 20260504014632 | 40 | 308 | 2.0 | 2.0 | 0.00 | 0.01 | 0.01 | 58 | 1006.3 |
| 20260504014130 | 40 | 269 | 0.0 | 2.0 | 0.00 | 0.01 | 0.01 | 58 | 1006.7 |
| 20260504013627 | 41 | 49 | 0.0 | 2.0 | 0.00 | 0.01 | 0.01 | 57 | 1006.4 |
| 20260504013124 | 41 | 257 | 2.0 | 3.0 | 0.00 | 0.01 | 0.01 | 54 | 1006.5 |
| 20260504012621 | 42 | 311 | 4.0 | 9.0 | 0.00 | 0.01 | 0.01 | 53 | 1006.3 |
| 20260504012120 | 42 | 332 | 2.0 | 10.0 | 0.00 | 0.01 | 0.01 | 53 | 1006.3 |
| 20260504011616 | 42 | 309 | 3.0 | 9.0 | 0.00 | 0.01 | 0.01 | 53 | 1006.3 |
| 20260504011112 | 42 | 287 | 2.0 | 4.0 | 0.00 | 0.01 | 0.01 | 53 | 1006.4 |
| 20260504010608 | 42 | 291 | 2.0 | 3.0 | 0.00 | 0.01 | 0.01 | 53 | 1006.4 |
| 20260504010104 | 42 | 318 | 2.0 | 6.0 | 0.00 | 0.01 | 0.01 | 53 | 1006.4 |
| 20260504005601 | 42 | 325 | 7.0 | 7.0 | 0.00 | 0.01 | 0.01 | 52 | 1006.3 |
| 20260504005058 | 42 | 302 | 6.0 | 10.0 | 0.00 | 0.01 | 0.01 | 51 | 1006.3 |
| 20260504004556 | 42 | 11 | 2.0 | 7.0 | 0.00 | 0.01 | 0.01 | 52 | 1006.0 |
| 20260504004053 | 42 | 306 | 13.0 | 15.0 | 0.00 | 0.01 | 0.01 | 52 | 1006.1 |
| 20260504003549 | 42 | 343 | 2.0 | 6.0 | 0.00 | 0.01 | 0.01 | 52 | 1006.0 |
| 20260504003046 | 42 | 282 | 4.0 | 11.0 | 0.00 | 0.01 | 0.01 | 52 | 1006.1 |
| 20260504002543 | 42 | 300 | 4.0 | 7.0 | 0.00 | 0.01 | 0.01 | 52 | 1005.8 |
| 20260504002040 | 42 | 14 | 2.0 | 8.0 | 0.00 | 0.01 | 0.01 | 52 | 1006.0 |
| 20260504001538 | 43 | 269 | 7.0 | 10.0 | 0.00 | 0.01 | 0.01 | 50 | 1006.0 |
| 20260504001034 | 43 | 334 | 3.0 | 12.0 | 0.00 | 0.01 | 0.01 | 50 | 1005.9 |
| 20260504000531 | 43 | 306 | 5.0 | 10.0 | 0.00 | 0.01 | 0.01 | 50 | 1005.8 |
| 20260504000029 | 43 | 278 | 4.0 | 9.0 | 0.00 | 0.01 | 0.01 | 50 | 1005.7 |
| 20260503235527 | 43 | 318 | 4.0 | 10.0 | 0.00 | 0.01 | 0.01 | 49 | 1005.4 |
| 20260503235023 | 43 | 340 | 8.0 | 16.0 | 0.00 | 0.01 | 0.01 | 49 | 1005.3 |
| 20260503234521 | 44 | 309 | 7.0 | 13.0 | 0.00 | 0.01 | 0.01 | 49 | 1005.3 |
| 20260503234019 | 44 | 295 | 6.0 | 11.0 | 0.00 | 0.01 | 0.01 | 48 | 1005.4 |
| 20260503233515 | 44 | 319 | 7.0 | 9.0 | 0.00 | 0.01 | 0.01 | 47 | 1005.2 |
| 20260503233011 | 45 | 319 | 4.0 | 13.0 | 0.00 | 0.01 | 0.01 | 47 | 1005.2 |
| 20260503232508 | 45 | 140 | 2.0 | 14.0 | 0.00 | 0.01 | 0.01 | 47 | 1005.1 |
| 20260503232006 | 46 | 288 | 9.0 | 9.0 | 0.00 | 0.01 | 0.01 | 45 | 1005.1 |
| 20260503231504 | 46 | 52 | 2.0 | 9.0 | 0.00 | 0.01 | 0.01 | 46 | 1005.2 |
| 20260503231000 | 45 | 37 | 2.0 | 9.0 | 0.00 | 0.01 | 0.01 | 47 | 1005.3 |
| 20260503230456 | 45 | 62 | 0.0 | 13.0 | 0.00 | 0.01 | 0.01 | 45 | 1005.1 |
| 20260503225954 | 46 | 286 | 8.0 | 11.0 | 0.00 | 0.01 | 0.01 | 45 | 1005.1 |
| 20260503225451 | 45 | 1 | 5.0 | 10.0 | 0.00 | 0.01 | 0.01 | 46 | 1005.1 |
| 20260503224946 | 46 | 306 | 5.0 | 9.0 | 0.00 | 0.01 | 0.01 | 44 | 1005.3 |
| 20260503224443 | 46 | 319 | 4.0 | 18.0 | 0.00 | 0.01 | 0.01 | 44 | 1005.1 |
| 20260503223941 | 46 | 282 | 7.0 | 17.0 | 0.00 | 0.01 | 0.01 | 44 | 1004.9 |
| 20260503223439 | 45 | 19 | 6.0 | 16.0 | 0.00 | 0.01 | 0.01 | 45 | 1005.0 |
| 20260503222934 | 46 | 303 | 6.0 | 8.0 | 0.00 | 0.01 | 0.01 | 45 | 1005.0 |
| 20260503222433 | 46 | 295 | 5.0 | 6.0 | 0.00 | 0.01 | 0.01 | 44 | 1004.7 |
| 20260503221931 | 46 | 291 | 11.0 | 17.0 | 0.00 | 0.01 | 0.01 | 43 | 1004.8 |
| 20260503221429 | 46 | 213 | 2.0 | 14.0 | 0.00 | 0.01 | 0.01 | 43 | 1004.9 |
| 20260503220925 | 46 | 335 | 8.0 | 21.0 | 0.00 | 0.01 | 0.01 | 44 | 1004.9 |
| 20260503220421 | 46 | 304 | 10.0 | 15.0 | 0.00 | 0.01 | 0.01 | 42 | 1004.6 |
| 20260503215919 | 46 | 8 | 4.0 | 14.0 | 0.00 | 0.01 | 0.01 | 42 | 1004.7 |
| 20260503215416 | 46 | 229 | 1.0 | 13.0 | 0.00 | 0.01 | 0.01 | 42 | 1004.5 |
| 20260503214913 | 46 | 304 | 4.0 | 13.0 | 0.00 | 0.01 | 0.01 | 42 | 1004.6 |
| 20260503214410 | 47 | 330 | 14.0 | 21.0 | 0.00 | 0.01 | 0.01 | 41 | 1004.6 |
| 20260503213908 | 48 | 281 | 9.0 | 16.0 | 0.00 | 0.01 | 0.01 | 40 | 1004.5 |
| 20260503213406 | 49 | 304 | 13.0 | 21.0 | 0.00 | 0.01 | 0.01 | 39 | 1004.6 |
| 20260503212902 | 49 | 327 | 4.0 | 18.0 | 0.00 | 0.01 | 0.01 | 39 | 1004.6 |
| 20260503212400 | 48 | 269 | 19.0 | 21.0 | 0.00 | 0.01 | 0.01 | 39 | 1004.5 |
| 20260503211857 | 49 | 315 | 7.0 | 15.0 | 0.00 | 0.01 | 0.01 | 41 | 1004.6 |
| 20260503211354 | 48 | 307 | 9.0 | 18.0 | 0.00 | 0.01 | 0.01 | 40 | 1004.5 |
| 20260503210848 | 48 | 304 | 18.0 | 24.0 | 0.00 | 0.01 | 0.01 | 38 | 1004.3 |
| 20260503210346 | 48 | 310 | 17.0 | 26.0 | 0.00 | 0.01 | 0.01 | 38 | 1004.4 |
| 20260503205841 | 47 | 276 | 24.0 | 26.0 | 0.00 | 0.01 | 0.01 | 40 | 1004.3 |
| 20260503205338 | 47 | 289 | 14.0 | 22.0 | 0.00 | 0.01 | 0.01 | 40 | 1004.5 |
| 20260503204834 | 48 | 264 | 12.0 | 21.0 | 0.00 | 0.01 | 0.01 | 40 | 1004.4 |
| 20260503204332 | 48 | 292 | 12.0 | 20.0 | 0.00 | 0.01 | 0.01 | 42 | 1004.3 |
| 20260503203829 | 48 | 312 | 14.0 | 22.0 | 0.00 | 0.01 | 0.01 | 40 | 1004.2 |
| 20260503203326 | 48 | 323 | 8.0 | 18.0 | 0.00 | 0.01 | 0.01 | 40 | 1004.2 |
| 20260503202823 | 49 | 301 | 8.0 | 16.0 | 0.00 | 0.01 | 0.01 | 39 | 1004.1 |